Location: Wanzleben
(52.0609°N, 11.4408°E)
Time: 19:07:10
(UTC+00:00)

Cosmos 1943 Rocket - Pass Details

Date: 18 September 2020
Orbit: 814 x 842 km, 71.0° (Epoch: 22 October)

Event Time Altitude Azimuth Distance (km) Brightness Sun altitude
Exits shadow 22:35:46 21° 44° (NE) 1,811 4.2 -36.1°
Drops below altitude 10° 22:37:33 10° 38° (NE) 2,445 5.0 -36.1°
Sets 22:40:02 0° 34° (NNE) 3,378 5.9 -36.2°
